Location: Beuerbach
(48.1459°N, 10.9174°E)
Time: 00:39:06
(UTC+00:00)

SAR-Lupe-4 - Pass Details

Date: 23 May 2024
Orbit: 476 x 482 km, 98.1° (Epoch: 02 April)

Event Time Altitude Azimuth Distance (km) Brightness Sun altitude
Rises 02:09:26 0° 14° (NNE) 2,553 8.4 -10.7°
Reaches altitude 10° 02:11:31 10° 15° (NNE) 1,668 7.4 -10.5°
Maximum altitude 02:15:06 85° 104° (ESE) 489 3.6 -10.1°
Enters shadow 02:18:38 10° 193° (SSW) 1,644 5.7 -9.7°
